www.pogodaiklimat.ru

Погода и климат >> Архив погоды >> Германия >> Leuchtturm Alte Weser


ПОГОДА в Leuchtturm Alte Weser

  • Прогноз погоды в Leuchtturm Alte Weser
  • Монитор погоды в Leuchtturm Alte Weser
  • Климат города

АРХИВ ПОГОДЫ в Leuchtturm Alte Weser

Время (UTC), дата Ветер
(напр.,м/с)
 
Видим.   Явления Облачность Т
(С)
Тd
(С)
f
(%)
Тe
(С)
Тes
(С)
Комфортность P
(гПа)
Po
(гПа)
Тmin
(С)
Tmax
(С)
R
(мм)
R24
(мм)
S
(см)
22 17.05 ЮВ 14
{14}
н/о н/о +21.2 +14.2 64 +24 +24 комфорт 1011.0 1007.4
23 17.05 ЮВ 13
{15}
н/о н/о +20.1 +14.1 68 +21 +21 комфорт 1010.5 1006.9
00 18.05 ЮВ 13
{15}
н/о н/о +19.1 +14.0 72 +19 +19 1009.7 1006.1
01 18.05 ЮВ 13
{14}
н/о н/о +18.7 +14.0 74 +18 +18 1008.9 1005.3
02 18.05 ЮВ 13
{14}
н/о н/о +18.0 +13.7 76 +17 +17 1008.1 1004.5
03 18.05 ЮВ 13
{15}
н/о н/о +19.1 +14.0 72 +19 +19 1009.7 1006.1
04 18.05 ЮВ 11
{13}
н/о н/о +17.0 +13.8 81 +15 +15 1007.4 1003.7
05 18.05 Ю 11 н/о н/о +17.4 +13.7 79 +16 +16 1007.4 1003.8
06 18.05 ЮВ 12
{14}
н/о н/о +17.7 +13.6 77 +16 +16 1007.6 1004.0
07 18.05 ЮЗ 10 н/о н/о +19.2 +14.1 72 +20 +20 1008.3 1004.7
08 18.05 З 10 н/о н/о +17.7 +13.3 75 +16 +16 1009.1 1005.5
09 18.05 З 13
{15}
н/о н/о +14.1 +12.2 88 +11 +11 1009.7 1006.0
10 18.05 З 13
{15}
н/о н/о +12.2 +11.7 97 +8 +8 1010.8 1007.1
11 18.05 З 8
{14}
н/о н/о +11.4 +11.1 98 +8 +8 1011.8 1008.1
12 18.05 З 7
{15}
н/о н/о +11.4 +10.9 97 +8 +8 1012.4 1008.6
13 18.05 З 7 н/о н/о +10.9 +10.6 98 +7 +7 1013.1 1009.3
14 18.05 СЗ 6 н/о н/о +10.4 +10.4 100 +7 +7 1013.2 1009.4
15 18.05 СЗ 5 н/о н/о +10.3 +10.3 100 +7 +7 1012.9 1009.2
16 18.05 СЗ 5 н/о н/о +10.0 +10.0 100 +7 +7 1012.7 1008.9
17 18.05 СЗ 4 н/о н/о +10.1 +10.1 100 +7 +7 1012.8 1009.0
18 18.05 С 5 н/о н/о +10.2 +10.2 100 +7 +7 1012.2 1008.4 +9.9 +19.7
19 18.05 С 6 н/о н/о +10.1 +10.1 100 +6 +6 1012.0 1008.2
20 18.05 С 5 н/о н/о +10.3 +10.3 100 +7 +7 1012.1 1008.3
21 18.05 С 5 н/о н/о +10.4 +10.4 100 +7 +7 1012.0 1008.2
22 18.05 С 4 н/о н/о +10.7 +10.7 100 +8 +8 1012.2 1008.5
23 18.05 С 5 н/о н/о +11.1 +11.1 100 +8 +8 1011.1 1007.3
00 19.05 СВ 5 н/о н/о +11.5 +11.5 100 +9 +9 1010.6 1006.9
01 19.05 СВ 5 н/о н/о +12.1 +12.1 100 +9 +9 1009.9 1006.2
02 19.05 СВ 5 н/о н/о +12.3 +12.3 100 +10 +10 1009.7 1005.9
03 19.05 В 5 н/о н/о +12.7 +12.7 100 +10 +10 1009.4 1005.7
04 19.05 В 6 н/о н/о +13.0 +12.8 99 +10 +10 1008.8 1005.1
05 19.05 В 6 н/о н/о +13.2 +13.0 99 +11 +11 1009.0 1005.3
06 19.05 В 8 н/о н/о +13.3 +13.3 100 +10 +10 1008.4 1004.7 +10.0 +13.3
07 19.05 ЮВ 8 н/о н/о +13.7 +13.7 100 +11 +11 1008.3 1004.6
08 19.05 ЮВ 7 н/о н/о +14.3 +14.3 100 +12 +12 1008.5 1004.8
09 19.05 Ю 5 н/о н/о +14.4 +14.4 100 +13 +13 1008.5 1004.9
10 19.05 Ю 3 н/о н/о +15.2 +14.9 98 +14 +14 1008.9 1005.2
11 19.05 ЮВ 2 н/о н/о +16.9 +14.6 86 +17 +17 1009.2 1005.6
12 19.05 З 5 н/о н/о +15.9 +12.2 79 +15 +15 1009.5 1005.8
13 19.05 СЗ 9 н/о н/о +13.1 +11.4 89 +10 +10 1010.0 1006.3
14 19.05 СЗ 9 н/о н/о +12.2 +10.4 89 +9 +9 1010.4 1006.6
15 19.05 З 11 н/о н/о +13.8 +9.6 76 +11 +11 1010.7 1007.0
16 19.05 СЗ 8 н/о н/о +13.3 +9.7 79 +11 +11 1011.0 1007.2
17 19.05 СЗ 6 н/о н/о +12.3 +10.0 86 +10 +10 1011.2 1007.5
18 19.05 СЗ 7 н/о н/о +11.1 +10.9 99 +8 +8 1011.8 1008.1 +11.0 +17.0
19 19.05 З 6 н/о н/о +10.9 +10.9 100 +8 +8 1012.0 1008.3
20 19.05 З 7 н/о н/о +10.9 +10.7 99 +7 +7 1012.2 1008.4
21 19.05 З 5 н/о н/о +11.1 +11.0 99 +8 +8 1012.9 1009.1
22 19.05 ЮЗ 7 н/о н/о +11.4 +11.1 98 +8 +8 1013.1 1009.4
23 19.05 ЮЗ 7 н/о н/о +11.5 +10.6 94 +8 +8 1012.8 1009.1
00 20.05 ЮЗ 9 н/о н/о +11.6 +10.6 94 +8 +8 1013.1 1009.4
01 20.05 ЮЗ 8 н/о н/о +11.7 +10.2 91 +8 +8 1013.2 1009.4
02 20.05 ЮЗ 7 н/о н/о +11.5 +10.2 92 +8 +8 1013.4 1009.6
03 20.05 ЮЗ 8 н/о н/о +11.5 +10.4 93 +8 +8 1014.0 1010.2
04 20.05 ЮЗ 6 н/о н/о +11.4 +10.4 94 +8 +8 1014.5 1010.8
05 20.05 ЮЗ 6 н/о н/о +11.3 +10.6 95 +8 +8 1015.0 1011.3
06 20.05 ЮЗ 5 н/о н/о +11.2 +10.5 95 +8 +8 1016.0 1012.2 +10.8 +12.4
07 20.05 ЮЗ 7 н/о н/о +11.7 +9.7 88 +8 +8 1016.8 1013.0
08 20.05 ЮЗ 7 н/о н/о +11.9 +9.2 84 +9 +9 1017.4 1013.7
09 20.05 З 5 н/о н/о +12.2 +8.8 80 +10 +10 1018.2 1014.4
10 20.05 З 4 н/о н/о +12.0 +9.2 83 +10 +10 1019.0 1015.2
11 20.05 З 5 н/о н/о +12.4 +9.2 81 +10 +10 1019.6 1015.9
12 20.05 СЗ 3 н/о н/о +12.6 +8.9 78 +11 +11 1020.2 1016.4
13 20.05 С 4 н/о н/о +12.7 +8.9 78 +11 +11 1020.7 1016.9
14 20.05 С 3 н/о н/о +12.6 +9.3 80 +11 +11 1021.2 1017.4
15 20.05 СВ 2 н/о н/о +14.0 +9.9 76 +14 +14 1021.6 1017.9
16 20.05 ЮВ 1 н/о н/о +13.1 +9.3 78 +13 +13 1022.6 1018.8
17 20.05 СВ 2 н/о н/о +13.8 +9.0 73 +13 +13 1022.6 1018.8
18 20.05 штиль 0 н/о н/о +12.9 +8.1 73 +13 +13 1023.2 1019.5 +11.1 +14.5
19 20.05 В 1 н/о н/о +14.3 +8.0 66 +15 +15 1023.4 1019.6
20 20.05 Ю 2 н/о н/о +12.9 +8.4 74 +12 +12 1024.1 1020.3
21 20.05 СЗ 1 н/о н/о +12.8 +8.3 74 +13 +13 1024.4 1020.7
22 20.05 В 1 н/о н/о +12.8 +9.4 80 +13 +13 1024.5 1020.7
23 20.05 ЮВ 3 н/о н/о +13.3 +8.6 73 +12 +12 1025.0 1021.2
00 21.05 ЮВ 4 н/о н/о +13.6 +10.6 82 +12 +12 1025.2 1021.4
01 21.05 Ю 5 н/о н/о +13.5 +11.2 86 +12 +12 1025.2 1021.5
02 21.05 Ю 6 н/о н/о +13.0 +10.2 83 +11 +11 1025.2 1021.4
03 21.05 Ю 5 н/о н/о +12.8 +11.4 91 +11 +11 1025.1 1021.3
04 21.05 Ю 6 н/о н/о +12.9 +9.8 81 +10 +10 1025.1 1021.3
05 21.05 Ю 6 н/о н/о +12.7 +9.3 80 +10 +10 1025.2 1021.4
06 21.05 Ю 6 н/о н/о +13.0 +9.6 80 +11 +11 1025.6 1021.8 +12.4 +16.2
07 21.05 Ю 7 н/о н/о +12.3 +8.6 78 +9 +9 1026.0 1022.3
08 21.05 ЮЗ 6 н/о н/о +12.9 +8.9 77 +11 +11 1026.5 1022.7
09 21.05 З 5 н/о н/о +13.4 +8.2 71 +12 +12 1026.8 1023.1
10 21.05 З 4 н/о н/о +13.4 +8.8 74 +12 +12 1027.1 1023.4
11 21.05 СЗ 4 н/о н/о +13.7 +8.6 71 +12 +12 1027.2 1023.4
12 21.05 СЗ 2 н/о н/о +13.4 +8.7 73 +13 +13 1027.1 1023.3
13 21.05 С 3 н/о н/о +13.7 +8.7 72 +13 +13 1027.0 1023.2
14 21.05 С 4 н/о н/о +13.7 +9.1 74 +12 +12 1026.8 1023.1
15 21.05 С 4 н/о н/о +13.3 +9.7 79 +12 +12 1026.5 1022.7
16 21.05 С 4 н/о н/о +13.1 +9.8 80 +11 +11 1026.2 1022.5
17 21.05 СВ 3 н/о н/о +13.2 +10.1 81 +12 +12 1025.9 1022.1
18 21.05 С 3 н/о н/о +13.1 +9.0 76 +12 +12 1025.7 1021.9 +12.1 +13.9
19 21.05 СВ 3 н/о н/о +12.9 +9.7 81 +12 +12 1025.4 1021.6
20 21.05 СВ 3 н/о н/о +12.5 +10.3 86 +11 +11 1025.3 1021.5
21 21.05 В 3 н/о н/о +12.9 +10.3 84 +12 +12 1025.1 1021.4
22 21.05 В 3 н/о н/о +13.1 +9.6 79 +12 +12 1024.9 1021.1
23 21.05 В 3 н/о н/о +13.4 +8.9 74 +12 +12 1024.6 1020.8
00 22.05 В 3 н/о н/о +13.5 +9.1 75 +12 +12 1024.3 1020.6
01 22.05 В 3 н/о н/о +13.6 +11.4 87 +12 +12 1024.1 1020.3
02 22.05 В 4 н/о н/о +13.9 +10.2 78 +12 +12 1023.7 1019.9
03 22.05 В 4 н/о н/о +13.9 +9.1 73 +12 +12 1023.4 1019.6
04 22.05 В 4 н/о н/о +13.7 +8.7 72 +12 +12 1023.1 1019.4
05 22.05 В 5 н/о н/о +13.7 +7.9 68 +12 +12 1022.9 1019.1
06 22.05 В 5 н/о н/о +14.4 +8.8 69 +13 +13 1022.5 1018.8 +12.5 +14.4
07 22.05 В 5 н/о н/о +14.4 +9.3 71 +13 +13 1022.2 1018.5
08 22.05 В 4 н/о н/о +14.5 +9.9 74 +13 +13 1022.0 1018.2
09 22.05 В 4 н/о н/о +15.1 +9.8 71 +14 +14 1021.9 1018.1
10 22.05 В 3 н/о н/о +16.0 +11.9 77 +16 +16 1021.6 1017.8
11 22.05 В 3 н/о н/о +17.8 +10.4 62 +18 +18 1021.1 1017.4
12 22.05 СВ 3 н/о н/о +17.7 +10.8 64 +18 +18 1020.5 1016.8
13 22.05 СВ 4 н/о н/о +19.0 +10.6 58 +20 +20 1020.0 1016.3
14 22.05 СВ 6 н/о н/о +18.4 +9.0 54 +18 +18 1019.3 1015.7
15 22.05 СЗ 7 н/о н/о +19.0 +6.7 45 +19 +19 1018.7 1015.0
16 22.05 С 7 н/о н/о +19.2 +7.4 46 +19 +19 1018.1 1014.5
17 22.05 СВ 7 н/о н/о +19.3 +6.7 44 +19 +19 1017.5 1013.9
18 22.05 СВ 7 н/о н/о +17.6 +9.0 57 +17 +17 1017.2 1013.5 +13.7 +19.4
19 22.05 СВ 7 н/о н/о +17.3 +10.4 64 +16 +16 1017.0 1013.3
20 22.05 В 8 н/о н/о +17.2 +9.8 62 +16 +16 1016.8 1013.1
21 22.05 В 10 н/о н/о +17.9 +11.5 66 +17 +17 1016.6 1012.9
22 22.05 В 10 н/о н/о +17.2 +12.8 75 +16 +16 1016.1 1012.4
23 22.05 В 9 н/о н/о +16.3 +12.3 77 +15 +15 1015.6 1012.0
00 23.05 ЮВ 8 н/о н/о +15.6 +11.5 77 +14 +14 1015.2 1011.5
01 23.05 ЮВ 7 н/о н/о +15.5 +11.9 79 +14 +14 1014.8 1011.1
02 23.05 Ю 8 н/о н/о +16.6 +11.7 73 +15 +15 1014.4 1010.7
03 23.05 Ю 7 н/о н/о +16.2 +10.8 70 +15 +15 1014.0 1010.3
04 23.05 Ю 8 н/о н/о +15.3 +10.9 75 +13 +13 1013.6 1009.9
05 23.05 Ю 7 н/о н/о +15.2 +11.5 79 +13 +13 1013.7 1010.0
06 23.05 Ю 7 н/о н/о +15.1 +11.5 79 +13 +13 1013.5 1009.8 +15.0 +19.4
07 23.05 Ю 7 н/о н/о +15.3 +11.7 79 +14 +14 1013.6 1009.9
08 23.05 Ю 5 н/о н/о +16.2 +11.3 73 +15 +15 1013.7 1010.0
09 23.05 З 5 н/о н/о +16.6 +11.5 72 +16 +16 1014.0 1010.3
10 23.05 З 9 н/о н/о +14.8 +10.9 77 +12 +12 1014.2 1010.5
11 23.05 З 6 н/о н/о +17.2 +8.7 57 +16 +16 1014.3 1010.6
12 23.05 З 12
{13}
н/о н/о +13.8 +10.7 82 +11 +11 1014.5 1010.8
13 23.05 З 10
{13}
н/о н/о +13.0 +11.1 88 +10 +10 1015.2 1011.4
14 23.05 З 10
{13}
н/о н/о +12.6 +11.5 93 +9 +9 1015.8 1012.0
15 23.05 СЗ 13
{15}
н/о н/о +12.1 +10.6 91 +8 +8 1016.3 1012.6
16 23.05 З 13
{15}
н/о н/о +12.0 +10.0 88 +8 +8 1016.8 1013.1
17 23.05 СЗ 13
{16}
н/о н/о +11.6 +9.9 89 +7 +7 1017.8 1014.0
18 23.05 СЗ 12
{16}
н/о н/о +11.4 +9.8 90 +7 +7 1018.4 1014.6 +11.4 +17.5
19 23.05 СЗ 12
{15}
н/о н/о +11.3 +9.5 89 +7 +7 1018.9 1015.1
20 23.05 З 12
{14}
н/о н/о +11.2 +9.7 90 +7 +7 1019.5 1015.7
21 23.05 З 10
{16}
н/о н/о +11.2 +9.9 92 +7 +7 1019.7 1016.0
22 23.05 З 10 н/о н/о +11.2 +10.0 92 +7 +7 1020.0 1016.2
23 23.05 З 10 н/о н/о +11.2 +9.7 90 +7 +7 1020.0 1016.3
00 24.05 З 10
{16}
н/о н/о +11.2 +9.7 90 +7 +7 1019.9 1016.2
01 24.05 З 10
{13}
н/о н/о +11.1 +9.8 92 +7 +7 1020.0 1016.2
02 24.05 СЗ 11 н/о н/о +11.0 +9.8 92 +7 +7 1020.1 1016.4
03 24.05 СЗ 10
{13}
н/о н/о +11.0 +9.5 90 +7 +7 1020.1 1016.4
04 24.05 СЗ 10 н/о н/о +11.2 +9.2 87 +7 +7 1020.4 1016.6
05 24.05 СЗ 9 н/о н/о +11.2 +9.0 86 +7 +7 1020.6 1016.9
06 24.05 СЗ 8
{13}
н/о н/о +11.3 +9.5 89 +8 +8 1021.2 1017.5 +11.0 +11.7
07 24.05 З 8 н/о н/о +11.2 +9.5 89 +8 +8 1021.6 1017.8
08 24.05 З 8 н/о н/о +11.3 +9.8 90 +8 +8 1021.6 1017.8
09 24.05 З 8 н/о н/о +11.5 +9.4 87 +8 +8 1022.0 1018.2
10 24.05 З 6 н/о н/о +11.8 +9.0 83 +9 +9 1022.2 1018.4
11 24.05 З 7 н/о н/о +11.8 +9.3 85 +9 +9 1022.2 1018.5
12 24.05 З 6 н/о н/о +12.0 +9.0 82 +9 +9 1022.1 1018.3
13 24.05 З 7 н/о н/о +12.2 +8.9 80 +9 +9 1022.3 1018.5
14 24.05 З 6 н/о н/о +12.5 +9.4 81 +10 +10 1022.2 1018.5
15 24.05 З 7 н/о н/о +12.5 +9.6 82 +10 +10 1022.1 1018.4
16 24.05 СЗ 7 н/о н/о +12.3 +10.5 89 +9 +9 1022.0 1018.2
17 24.05 СЗ 5 н/о н/о +12.4 +10.8 90 +10 +10 1021.9 1018.2
18 24.05 З 7 н/о н/о +12.2 +11.0 92 +9 +9 1021.9 1018.2 +11.1 +12.6
19 24.05 СЗ 5 н/о н/о +11.8 +11.2 96 +9 +9 1022.3 1018.5
20 24.05 СЗ 6 н/о н/о +11.5 +11.3 99 +8 +8 1022.6 1018.8

 

Местоположение метеостанции Leuchtturm Alte Weser (Германия): широта 53.87 долгота 8.13 высота над уровнем моря 32 м.

В архиве по умолчанию представлена погода в Leuchtturm Alte Weser за последнюю неделю. Архивные данные за месяц целиком и за предыдущие месяцы, начиная с января 2011 года, Вы можете получить, выбрав интересующий диапазон дат из раскрывающегося списка и нажав кнопку "Ввод!".

Внимание! Время в таблицах - всемирное. Для получения местного времени необходимо прибавить поправку, которая в Leuchtturm Alte Weser равна 1 ч.

Смотрите также архив погоды в соседних городах и на ближайших метеорологических станциях:

Погода в Nordholz (Германия) (37 км)
Погода в Cuxhaven (Германия) (37 км)
Погода в Helgoland (Германия) (38 км)
Погода в Wittmundhaven (Германия) (47 км)
Погода в Bremerhaven (Германия) (48 км)
Погода в Ufs Deutsche Bucht (Германия) (57 км)
Погода в St Peter-Ording (Германия) (60 км)
Погода в Elpersbuettel (Германия) (62 км)
Погода в Norderney Island (Германия) (67 км)
Погода в Bremervoerde (Германия) (80 км)

Пояснения к столбцам:

Ветер - указаны скорость ветра в м/с - средняя за 10 мин, порывы в срок и между сроками (в фигурных скобках) и направление, откуда дует ветер: С - северный, СВ - северо-восточный, В - восточный, ЮВ - юго-восточный, Ю - южный, ЮЗ - юго-западный, З - западный, СЗ - северо-западный.
Видимость - горизонтальная дальность видимости в метрах или километрах. При видимости от 1 до 10 км при отсутствии осадков обычно наблюдается дымка, при ухудшении видимости до 1 км и менее - туман. В сухую погоду видимость может ухудшаться дымом, пылью или мглою.
Явления - указаны атмосферные явления, наблюдавшиеся в срок или в последний час перед сроком; фигурными скобками обозначены явления, наблюдавшиеся между сроками (за 1-3 часа до срока); квадратными скобками обозначены град или гололедные отложения с указанием их диаметра в мм.
Облачность - указаны через наклонную черту общая и нижняя облачность в баллах и высота нижней границы облаков в метрах; квадратными скобками обозначены формы облаков: Ci - перистые, Cs - перисто-слоистые, Cc - перисто-кучевые, Ac - высококучевые, As - высокослоистые, Sc - слоисто-кучевые, Ns - слоисто-дождевые, Cu - кучевые, Cb - кучево-дождевые. Подробнее классификацию облаков см. в Атласе облаков (PDF).
T - Температура воздуха - температура, измеренная на высоте 2 м над землей.
Td - Температура точки росы - температура, при понижении до которой содержащийся в воздухе водяной пар достигнет насыщения.
f - Относительная влажность воздуха - влажноcть воздуха, измеренная на высоте 2 м над землей.
Te - Эффективная температура - температура, которую ощущает одетый по сезону человек в тени. Характеристика душности погоды. При расчете учитывается влияние влажности воздуха и скорости ветра на теплоощущения человека.
Tes - Эффективная температура на солнце - температура, которую ощущает человек, с поправкой на солнечный нагрев. Характеристика знойности погоды. Зависит от высоты солнца над горизонтом, облачности и скорости ветра. Ночью, в пасмурную погоду, а также при ветре 12 м/с и более поправка равна нулю.
P - Атмосферное давление - приведенное к уровню моря атмосферное давление.
Po - Атмосферное давление - измеренное на уровне метеостанции атмосферное давление.
Tmin - Минимальная температура - минимум температуры воздуха на высоте 2 м над землей.
Tmax - Максимальная температура - максимум температуры воздуха на высоте 2 м над землей.
R - Количество осадков - Количество выпавших осадков за период времени, мм. При наведении курсора мыши на число - период времени, за который выпало указанное количество осадков.
R24 - Количество осадков - Количество выпавших осадков за 24 часа, мм.
S - Снежный покров - Высота снежного покрова, см. При наведении курсора мыши на число - состояние снежного покрова и степень покрытия местности в баллах.